Home   Weather   Durban   Past weeks
Flag for South Africa

Past Weather in Durban, South Africa — Yesterday and Last 2 Weeks

Now
81 °F

Partly sunny.


Feels Like: 83 °F
Forecast: 84 / 71 °F
Wind: 6 mph from East

Location: King Shaka International Airport

Current Time: Mar 30, 2020 at 12:35:56 pm

Latest Report: Mar 30, 2020 at 12:00 pm


Visibility: N/A

Pressure: 29.98 "Hg

Humidity: 66%

Dew Point: 68 °F

Location of DurbanLocation

Past Weather in Durban — Graph

°F

Durban Temperature Yesterday

Maximum temperature yesterday: 79 °F (at 9:00 am)
Minimum temperature yesterday: 59 °F (at 5:22 am)
Average temperature yesterday: 71 °F

High & Low Weather Summary for the Past Weeks

 TemperatureHumidityPressure
High84 °F (Mar 20, 3:00 pm)94% (Mar 16, 5:13 am)30.27 "Hg (Mar 16, 5:13 am)
Low59 °F (Mar 29, 5:22 am)53% (Mar 27, 10:00 am)29.53 "Hg (Mar 26, 4:00 am)
Average73 °F81%29.99 "Hg
* Reported Mar 15 11:00 am — Mar 30 11:00 am, Durban. Weather by CustomWeather, © 2020

Note: Actual official high and low records may vary slightly from our data, if they occured in-between our weather recording intervals... More about our weather records

Durban Weather History for the Previous 24 Hours

Scroll right to see more
 ConditionsComfort  
Time TempWeatherWind HumidityBarometerVisibility
11:00 am
Mon, Mar 30
79 °FPartly sunny.3 mph70%30.01 "HgN/A
10:00 am77 °FScattered clouds.5 mph69%30.01 "HgN/A
9:00 am77 °FPartly sunny.6 mph74%30.01 "HgN/A
8:00 am75 °FScattered clouds.8 mph74%30.01 "HgN/A
7:51 am75 °FScattered clouds.8 mph74%30.01 "HgN/A
7:23 am73 °FPartly sunny.6 mph78%30.01 "HgN/A
7:00 am70 °FMostly cloudy.5 mph88%30.01 "HgN/A
6:50 am70 °FMostly cloudy.5 mph88%30.01 "HgN/A
6:00 am68 °FPartly cloudy.No wind94%29.98 "HgN/A
5:00 am68 °FPassing clouds.3 mph94%29.98 "HgN/A
4:00 am70 °FClear.2 mph88%29.98 "Hg10 mi
3:00 am70 °FClear.3 mph88%29.98 "Hg10 mi
2:00 am70 °FPassing clouds.5 mph88%29.98 "HgN/A
1:00 am72 °FLight rain. Passing clouds.2 mph83%30.01 "HgN/A
12:00 am72 °FClear.2 mph88%30.01 "Hg10 mi
11:00 pm
Sun, Mar 29
72 °FPassing clouds.1 mph88%30.01 "HgN/A
10:00 pm72 °FPassing clouds.5 mph88%30.04 "HgN/A
9:00 pm73 °FPassing clouds.8 mph83%30.04 "HgN/A
8:48 pm73 °FPartly cloudy.7 mph83%30.04 "HgN/A
8:00 pm73 °FPassing clouds.8 mph89%30.01 "HgN/A
7:00 pm73 °FPassing clouds.7 mph89%29.98 "HgN/A
6:00 pm73 °FPartly cloudy.8 mph89%29.95 "HgN/A
5:57 pm73 °FPartly cloudy.8 mph89%29.95 "HgN/A
5:00 pm75 °FBroken clouds.12 mph83%29.95 "HgN/A
4:00 pm77 °FBroken clouds.10 mph79%29.95 "HgN/A
3:00 pm77 °FPartly sunny.12 mph79%29.95 "HgN/A
2:00 pm77 °FPartly sunny.14 mph79%29.95 "HgN/A
1:56 pm77 °FPartly sunny.14 mph79%29.95 "HgN/A
1:00 pm77 °FPassing clouds.18 mph74%29.95 "HgN/A
12:00 pm77 °FPassing clouds.14 mph69%29.95 "HgN/A
Weather by CustomWeather, © 2020

See weather overview

Advertising